This is the latest recevied weather packets stored in our database for station/object IW1CBG-23. If no packets are shown the sender has not sent any weather packets the latest 10 day(s).
| Time | Temp. | Humidity | Pressure | Rain* | Wind** | Luminosity | Snow |
|---|---|---|---|---|---|---|---|
| 1777354840 | 13.33° C | 98% | 1010.8 hPa | - | - | - | - |
| 1777353601 | 12.78° C | 99% | 1010.7 hPa | - | - | - | - |
| 1777352363 | 13.33° C | 99% | 1010.5 hPa | - | - | - | - |
| 1777351124 | 12.78° C | 99% | 1010.3 hPa | - | - | - | - |
| 1777349887 | 12.78° C | 99% | 1010.4 hPa | - | - | - | - |
| 1777348650 | 13.33° C | 99% | 1010.5 hPa | - | - | - | - |
| 1777347414 | 13.33° C | 99% | 1010.7 hPa | - | - | - | - |
| 1777346175 | 13.33° C | 99% | 1010.7 hPa | - | - | - | - |
| 1777344938 | 12.78° C | 99% | 1010.7 hPa | - | - | - | - |
| 1777343700 | 12.78° C | 99% | 1010.7 hPa | - | - | - | - |
| 1777342462 | 12.22° C | 99% | 1010.9 hPa | - | - | - | - |
| 1777341226 | 12.78° C | 99% | 1011 hPa | - | - | - | - |
| 1777339988 | 12.22° C | 99% | 1011.1 hPa | - | - | - | - |
| 1777338750 | 12.78° C | 99% | 1011.1 hPa | - | - | - | - |
| 1777337513 | 12.78° C | 99% | 1011.4 hPa | - | - | - | - |
| 1777336277 | 13.89° C | 99% | 1011.6 hPa | - | - | - | - |
| 1777335040 | 13.89° C | 99% | 1011.7 hPa | - | - | - | - |
| 1777333802 | 13.89° C | 99% | 1011.8 hPa | - | - | - | - |
| 1777332563 | 13.89° C | 99% | 1011.8 hPa | - | - | - | - |
| 1777331326 | 12.22° C | 99% | 1011.8 hPa | - | - | - | - |
| 1777330089 | 12.78° C | 99% | 1011.9 hPa | - | - | - | - |
| 1777328851 | 12.78° C | 99% | 1011.8 hPa | - | - | - | - |
| 1777327614 | 12.78° C | 99% | 1012 hPa | - | - | - | - |
| 1777326376 | 13.33° C | 99% | 1012.1 hPa | - | - | - | - |
| 1777325139 | 13.89° C | 99% | 1012.1 hPa | - | - | - | - |
* Rain since midnight (hover to see other rain measurements)
** Current wind speed in m/s (hover to see current wind gust speed)